TimeHST,TemperatureF,Dew PointF,Humidity,Sea Level PressureIn,VisibilityMPH,Wind Direction,Wind SpeedMPH,Gust SpeedMPH,PrecipitationIn,Events,Conditions,WindDirDegrees,DateUTC
12:53 AM,75.0,63.0,66,30.01,10.0,SE,6.9,-,N/A,,Mostly Cloudy,140,2013-03-30 10:53:00
1:53 AM,73.9,63.0,68,29.99,10.0,SE,4.6,-,N/A,,Mostly Cloudy,130,2013-03-30 11:53:00
2:53 AM,73.9,63.0,68,29.99,10.0,ESE,4.6,-,N/A,,Partly Cloudy,120,2013-03-30 12:53:00
3:53 AM,73.0,63.0,71,29.97,10.0,ESE,3.5,-,N/A,,Scattered Clouds,120,2013-03-30 13:53:00
4:53 AM,73.0,63.0,71,29.96,10.0,Calm,Calm,-,N/A,,Scattered Clouds,0,2013-03-30 14:53:00
5:53 AM,73.9,63.0,68,29.99,10.0,Calm,Calm,-,N/A,,Overcast,0,2013-03-30 15:53:00
6:53 AM,73.9,63.0,68,30.01,10.0,ESE,3.5,-,N/A,,Mostly Cloudy,110,2013-03-30 16:53:00
7:53 AM,75.9,63.0,64,30.03,10.0,SSW,5.8,-,N/A,,Partly Cloudy,200,2013-03-30 17:53:00
8:53 AM,77.0,66.0,69,30.05,10.0,WSW,6.9,-,N/A,,Mostly Cloudy,240,2013-03-30 18:53:00
9:36 AM,77.0,66.2,69,30.05,10.0,West,6.9,-,N/A,,Mostly Cloudy,280,2013-03-30 19:36:00
9:49 AM,77.0,66.2,69,30.05,10.0,NNW,12.7,-,0.00,Rain,Light Rain,330,2013-03-30 19:49:00
9:53 AM,75.9,68.0,76,30.06,10.0,NW,11.5,-,0.00,Rain,Light Rain,320,2013-03-30 19:53:00
10:53 AM,75.9,66.0,71,30.05,10.0,NW,3.5,-,0.00,,Mostly Cloudy,320,2013-03-30 20:53:00
11:53 AM,77.0,66.9,71,30.04,10.0,NW,8.1,-,0.00,Rain,Light Rain,320,2013-03-30 21:53:00
12:53 PM,77.0,66.9,71,30.02,10.0,WNW,8.1,-,0.00,,Mostly Cloudy,300,2013-03-30 22:53:00
1:53 PM,78.1,66.0,66,29.99,10.0,WNW,9.2,-,N/A,,Scattered Clouds,290,2013-03-30 23:53:00
2:53 PM,78.1,66.9,68,29.97,10.0,West,8.1,-,N/A,,Partly Cloudy,280,2013-03-31 00:53:00
3:53 PM,77.0,66.0,69,29.96,10.0,WNW,10.4,-,N/A,,Clear,290,2013-03-31 01:53:00
4:53 PM,77.0,66.0,69,29.95,10.0,WNW,12.7,-,N/A,,Overcast,300,2013-03-31 02:53:00
5:53 PM,75.9,66.0,71,29.94,10.0,NW,12.7,-,N/A,,Overcast,320,2013-03-31 03:53:00
6:53 PM,75.0,64.9,71,29.97,10.0,NNW,11.5,-,N/A,,Overcast,340,2013-03-31 04:53:00
7:53 PM,75.0,64.9,71,29.97,10.0,North,10.4,-,N/A,,Overcast,10,2013-03-31 05:53:00
8:53 PM,75.0,64.9,71,29.99,10.0,NNE,10.4,-,N/A,,Mostly Cloudy,20,2013-03-31 06:53:00
9:53 PM,75.0,64.9,71,29.99,10.0,North,9.2,-,N/A,,Overcast,10,2013-03-31 07:53:00
10:53 PM,75.0,64.0,69,29.99,10.0,North,6.9,-,N/A,,Mostly Cloudy,350,2013-03-31 08:53:00
11:53 PM,73.9,64.0,71,29.99,10.0,Calm,Calm,-,N/A,,Clear,0,2013-03-31 09:53:00